#timestamp,LO_Frequency,Hit,Temp,Hum 
1479517215.4,286046615.3,N,0.0,0.0
1479517235.2,286046614.9,N,0.0,0.0
1479517255.0,286046614.5,N,0.0,0.0
1479517255.9,286046614.5,N,0.0,0.0
1479517275.8,286046615.3,N,0.0,0.0
1479517295.6,286046614.7,N,0.0,0.0
1479517315.5,286046614.7,N,0.0,0.0
1479517335.3,286046617.1,N,0.0,0.0
1479517355.1,286046614.3,N,0.0,0.0
1479517375.9,286046614.8,N,0.0,0.0
1479517395.7,286046614.9,N,0.0,0.0
1479517415.5,286046616.7,N,0.0,0.0
1479517435.4,286046614.2,N,0.0,0.0
1479517455.2,286046614.1,N,0.0,0.0
1479517475.1,286046616.7,N,0.0,0.0
1479517476.0,286046616.7,N,0.0,0.0
1479517495.8,286046616.3,N,0.0,0.0
1479517515.6,286046616.6,N,0.0,0.0
1479517535.5,286046616.7,N,0.0,0.0
1479517555.3,286046616.8,N,0.0,0.0
1479517575.1,286046615.9,N,0.0,0.0
1479517595.9,286046616.7,N,0.0,0.0
1479517615.7,286046617.1,N,0.0,0.0
1479517635.6,286046617.2,N,0.0,0.0
1479517655.4,286046616.2,N,0.0,0.0
1479517675.2,286046617.0,N,0.0,0.0
1479517695.1,286046616.8,N,0.0,0.0
1479517696.0,286046616.8,N,0.0,0.0
1479517715.8,286046614.1,N,0.0,0.0
1479517735.7,286046616.6,N,0.0,0.0
1479517755.5,286046616.9,N,0.0,0.0
1479517775.3,286046616.4,N,0.0,0.0
1479517795.2,286046616.5,N,0.0,0.0
1479517815.9,286046615.8,N,0.0,0.0
1479517835.7,286046616.2,N,0.0,0.0
1479517855.6,286046615.9,N,0.0,0.0
1479517875.4,286046616.5,N,0.0,0.0
1479517895.3,286046618.8,N,0.0,0.0
1479517915.1,286046616.0,N,0.0,0.0
1479517916.0,286046616.0,N,0.0,0.0
1479517935.8,286046616.5,N,0.0,0.0
1479517955.7,286046616.4,N,0.0,0.0
1479517975.5,286046616.2,N,0.0,0.0
1479517995.3,286046616.9,N,0.0,0.0
1479518015.2,286046616.5,N,0.0,0.0
1479518035.0,286046616.9,N,0.0,0.0
1479518035.9,286046616.9,N,0.0,0.0
1479518055.8,286046615.9,N,0.0,0.0
1479518075.6,286046616.5,N,0.0,0.0
1479518095.4,286046616.9,N,0.0,0.0
1479518115.3,286046616.0,N,0.0,0.0
1479518135.1,286046615.7,N,0.0,0.0
1479518155.8,286046617.0,N,0.0,0.0
1479518175.7,286046616.6,N,0.0,0.0
1479518195.5,286046616.3,N,0.0,0.0
1479518215.4,286046616.1,N,0.0,0.0
1479518235.2,286046616.3,N,0.0,0.0
1479518255.0,286046616.0,N,0.0,0.0
1479518255.9,286046616.0,N,0.0,0.0
1479518275.8,286046615.9,N,0.0,0.0
1479518295.6,286046615.7,N,0.0,0.0
1479518315.5,286046615.8,N,0.0,0.0
1479518335.3,286046615.8,N,0.0,0.0
1479518355.1,286046615.9,N,0.0,0.0
1479518375.9,286046618.2,N,0.0,0.0
1479518395.7,286046618.7,N,0.0,0.0
1479518415.5,286046615.7,N,0.0,0.0
1479518435.4,286046615.9,N,0.0,0.0
1479518455.2,286046618.4,N,0.0,0.0
1479518475.1,286046615.9,N,0.0,0.0
1479518476.0,286046615.9,N,0.0,0.0
1479518495.8,286046616.2,N,0.0,0.0
1479518515.6,286046618.4,N,0.0,0.0
1479518535.5,286046618.5,N,0.0,0.0
1479518555.3,286046615.8,N,0.0,0.0
1479518575.1,286046615.7,N,0.0,0.0
1479518595.9,286046616.2,N,0.0,0.0
1479518615.7,286046618.7,N,0.0,0.0
1479518635.6,286046616.2,N,0.0,0.0
1479518655.4,286046615.7,N,0.0,0.0
1479518675.2,286046615.7,N,0.0,0.0
1479518695.1,286046618.4,N,0.0,0.0
1479518696.0,286046618.4,N,0.0,0.0
1479518715.8,286046618.7,N,0.0,0.0
1479518735.6,286046615.8,N,0.0,0.0
1479518755.5,286046618.7,N,0.0,0.0
1479518775.3,286046617.4,N,0.0,0.0
1479518795.2,286046618.1,N,0.0,0.0
1479518815.9,286046618.2,N,0.0,0.0
1479518835.7,286046618.1,N,0.0,0.0
1479518855.6,286046617.7,N,0.0,0.0
1479518875.4,286046618.5,N,0.0,0.0
1479518895.2,286046618.3,N,0.0,0.0
1479518915.1,286046618.6,N,0.0,0.0
1479518916.0,286046618.6,N,0.0,0.0
1479518935.8,286046618.1,N,0.0,0.0
1479518955.7,286046618.2,N,0.0,0.0
1479518975.5,286046618.2,N,0.0,0.0
1479518995.3,286046618.1,N,0.0,0.0
1479519015.2,286046617.7,N,0.0,0.0
1479519035.0,286046617.9,N,0.0,0.0
1479519035.9,286046617.9,N,0.0,0.0
1479519055.8,286046617.5,N,0.0,0.0
1479519075.6,286046617.7,N,0.0,0.0
1479519095.4,286046619.7,N,0.0,0.0
1479519115.3,286046619.8,N,0.0,0.0
1479519135.1,286046619.8,N,0.0,0.0
1479519155.8,286046620.3,N,0.0,0.0
1479519175.7,286046619.7,N,0.0,0.0
1479519195.5,286046620.0,N,0.0,0.0
1479519215.4,286046619.8,N,0.0,0.0
1479519235.2,286046619.8,N,0.0,0.0
1479519255.0,286046619.0,N,0.0,0.0
1479519255.9,286046619.0,N,0.0,0.0
1479519275.8,286046619.1,N,0.0,0.0
1479519295.6,286046619.0,N,0.0,0.0
1479519315.5,286046619.4,N,0.0,0.0
1479519335.3,286046619.0,N,0.0,0.0
1479519355.1,286046619.1,N,0.0,0.0
1479519375.9,286046619.1,N,0.0,0.0
1479519395.7,286046618.9,N,0.0,0.0
1479519415.5,286046621.8,N,0.0,0.0
1479519435.4,286046619.5,N,0.0,0.0
1479519455.2,286046619.2,N,0.0,0.0
1479519475.1,286046619.1,N,0.0,0.0
1479519476.0,286046619.1,N,0.0,0.0
1479519495.8,286046621.9,N,0.0,0.0
1479519515.6,286046622.0,N,0.0,0.0
1479519535.5,286046621.7,N,0.0,0.0
1479519555.3,286046621.7,N,0.0,0.0
1479519575.2,286046621.1,N,0.0,0.0
1479519595.9,286046621.6,N,0.0,0.0
1479519615.7,286046621.6,N,0.0,0.0
1479519635.6,286046621.9,N,0.0,0.0
1479519655.4,286046621.2,N,0.0,0.0
1479519675.2,286046621.5,N,0.0,0.0
1479519695.1,286046621.7,N,0.0,0.0
1479519696.0,286046621.7,N,0.0,0.0
1479519715.8,286046621.7,N,0.0,0.0
1479519735.7,286046621.2,N,0.0,0.0
1479519755.5,286046621.6,N,0.0,0.0
1479519775.3,286046621.8,N,0.0,0.0
1479519795.2,286046622.0,N,0.0,0.0
1479519815.0,286046621.2,N,0.0,0.0
1479519815.9,286046621.2,N,0.0,0.0
1479519835.7,286046621.6,N,0.0,0.0
1479519855.6,286046621.7,N,0.0,0.0
1479519875.4,286046621.0,N,0.0,0.0
1479519895.3,286046623.2,N,0.0,0.0
1479519915.1,286046621.0,N,0.0,0.0
1479519916.0,286046621.0,N,0.0,0.0
1479519935.8,286046623.5,N,0.0,0.0
1479519955.7,286046620.6,N,0.0,0.0
1479519975.5,286046623.2,N,0.0,0.0
1479519995.4,286046623.5,N,0.0,0.0
1479520015.2,286046620.5,N,0.0,0.0
1479520035.0,286046623.5,N,0.0,0.0
1479520035.9,286046623.5,N,0.0,0.0
1479520055.8,286046622.7,N,0.0,0.0
1479520075.6,286046623.4,N,0.0,0.0
1479520095.4,286046623.4,N,0.0,0.0
1479520115.3,286046623.1,N,0.0,0.0
1479520135.1,286046622.4,N,0.0,0.0
1479520155.9,286046623.3,N,0.0,0.0
1479520175.7,286046623.1,N,0.0,0.0
1479520195.5,286046623.4,N,0.0,0.0
1479520215.4,286046623.3,N,0.0,0.0
1479520235.2,286046620.9,N,0.0,0.0
1479520255.0,286046620.5,N,0.0,0.0
1479520256.0,286046620.5,N,0.0,0.0
1479520275.8,286046623.6,N,0.0,0.0
1479520295.6,286046623.0,N,0.0,0.0
1479520315.5,286046620.5,N,0.0,0.0
1479520335.3,286046623.1,N,0.0,0.0
1479520355.1,286046620.5,N,0.0,0.0
1479520375.9,286046622.7,N,0.0,0.0
1479520395.7,286046623.2,N,0.0,0.0
1479520415.5,286046623.1,N,0.0,0.0
1479520435.4,286046623.1,N,0.0,0.0
1479520455.2,286046622.7,N,0.0,0.0
1479520475.1,286046623.3,N,0.0,0.0
1479520476.0,286046623.3,N,0.0,0.0
1479520495.8,286046623.3,N,0.0,0.0
1479520515.6,286046623.3,N,0.0,0.0
1479520535.5,286046622.6,N,0.0,0.0
1479520555.3,286046622.9,N,0.0,0.0
1479520575.2,286046622.9,N,0.0,0.0
1479520595.9,286046622.8,N,0.0,0.0
1479520615.7,286046622.1,N,0.0,0.0
1479520635.6,286046622.1,N,0.0,0.0
1479520655.4,286046625.2,N,0.0,0.0
1479520675.2,286046622.6,N,0.0,0.0
1479520695.1,286046624.9,N,0.0,0.0
1479520696.0,286046624.9,N,0.0,0.0
1479520715.8,286046624.7,N,0.0,0.0
1479520735.7,286046624.9,N,0.0,0.0
1479520755.5,286046624.4,N,0.0,0.0
1479520775.3,286046623.7,N,0.0,0.0
1479520795.2,286046624.9,N,0.0,0.0
